Location: Cussy
(47.0410°N, 4.6412°E)
Time: 05:21:42
(UTC+00:00)

YAOGAN 1 - Pass Details

Date: 30 November 2020
Orbit: 618 x 620 km, 97.9° (Epoch: 18 January)

Event Time Altitude Azimuth Distance (km) Brightness Sun altitude
Enters shadow 18:21:39 -1° 168° (SSE) 2,950 6.0 -24.3°
Exits shadow 18:29:05 59° 329° (NNW) 725 2.9 -25.6°
Drops below altitude 10° 18:32:39 10° 344° (NNW) 2,000 5.3 -26.2°
Sets 18:34:52 0° 346° (NNW) 2,911 6.1 -26.6°
